Year,Month,Day,Hour,Minute,Value (Times are PST for windgust in km/hr)
2017,07,16,00,01,1.60
2017,07,16,00,05,3.20
2017,07,16,00,06,1.60
2017,07,16,00,09,1.60
2017,07,16,00,18,1.60
2017,07,16,00,27,1.60
2017,07,16,00,28,1.60
2017,07,16,00,29,3.20
2017,07,16,00,30,4.80
2017,07,16,00,31,8.10
2017,07,16,00,41,1.60
2017,07,16,00,42,4.80
2017,07,16,00,43,6.40
2017,07,16,00,52,1.60
2017,07,16,01,14,1.60
2017,07,16,01,17,1.60
2017,07,16,01,27,1.60
2017,07,16,01,32,1.60
2017,07,16,01,38,4.80
2017,07,16,01,49,6.40
2017,07,16,01,50,6.40
2017,07,16,01,51,4.80
2017,07,16,01,58,1.60
2017,07,16,02,01,4.80
2017,07,16,02,08,4.80
2017,07,16,02,11,6.40
2017,07,16,02,27,1.60
2017,07,16,04,35,1.60
2017,07,16,04,45,1.60
2017,07,16,04,46,3.20
2017,07,16,04,49,1.60
2017,07,16,04,54,3.20
2017,07,16,05,07,1.60
2017,07,16,07,17,1.60
2017,07,16,07,46,12.90
2017,07,16,07,47,6.40
2017,07,16,07,53,1.60
2017,07,16,07,58,6.40
2017,07,16,07,59,12.90
2017,07,16,08,00,6.40
2017,07,16,08,01,12.90
2017,07,16,08,02,8.10
2017,07,16,08,05,1.60
2017,07,16,08,07,1.60
2017,07,16,08,09,6.40
2017,07,16,08,11,8.10
2017,07,16,08,20,1.60
2017,07,16,08,33,16.10
2017,07,16,08,35,11.30
2017,07,16,08,36,8.10
2017,07,16,08,39,8.10
2017,07,16,08,40,11.30
2017,07,16,08,41,6.40
2017,07,16,08,42,8.10
2017,07,16,08,43,1.60
2017,07,16,08,46,6.40
2017,07,16,08,47,6.40
2017,07,16,08,48,14.50
2017,07,16,08,50,1.60
2017,07,16,08,53,1.60
2017,07,16,08,54,6.40
2017,07,16,08,55,11.30
2017,07,16,08,56,9.60
2017,07,16,08,57,1.60
2017,07,16,09,00,3.20
2017,07,16,09,01,1.60
2017,07,16,09,02,3.20
2017,07,16,09,04,4.80
2017,07,16,09,09,8.10
2017,07,16,09,11,1.60
2017,07,16,09,16,1.60
2017,07,16,09,17,4.80
2017,07,16,09,18,6.40
2017,07,16,09,19,8.10
2017,07,16,09,20,8.10
2017,07,16,09,21,8.10
2017,07,16,09,22,9.60
2017,07,16,09,23,1.60
2017,07,16,09,24,3.20
2017,07,16,09,25,8.10
2017,07,16,09,26,6.40
2017,07,16,09,27,6.40
2017,07,16,09,30,8.10
2017,07,16,09,31,6.40
2017,07,16,09,32,3.20
2017,07,16,09,33,12.90
2017,07,16,09,34,8.10
2017,07,16,09,35,4.80
2017,07,16,09,38,9.60
2017,07,16,09,39,9.60
2017,07,16,09,40,6.40
2017,07,16,09,41,4.80
2017,07,16,09,42,3.20
2017,07,16,09,43,8.10
2017,07,16,09,45,6.40
2017,07,16,09,46,3.20
2017,07,16,09,50,9.60
2017,07,16,09,51,8.10
2017,07,16,09,52,8.10
2017,07,16,09,53,6.40
2017,07,16,09,54,8.10
2017,07,16,09,55,1.60
2017,07,16,09,56,9.60
2017,07,16,09,57,12.90
2017,07,16,09,58,11.30
2017,07,16,09,59,3.20
2017,07,16,10,01,1.60
2017,07,16,10,02,14.50
2017,07,16,10,03,14.50
2017,07,16,10,04,8.10
2017,07,16,10,05,11.30
2017,07,16,10,06,9.60
2017,07,16,10,07,9.60
2017,07,16,10,08,6.40
2017,07,16,10,09,11.30
2017,07,16,10,10,11.30
2017,07,16,10,11,1.60
2017,07,16,10,12,1.60
2017,07,16,10,15,9.60
2017,07,16,10,16,8.10
2017,07,16,10,17,6.40
2017,07,16,10,18,8.10
2017,07,16,10,19,8.10
2017,07,16,10,20,1.60
2017,07,16,10,21,1.60
2017,07,16,10,22,3.20
2017,07,16,10,24,1.60
2017,07,16,10,25,9.60
2017,07,16,10,26,14.50
2017,07,16,10,27,11.30
2017,07,16,10,28,11.30
2017,07,16,10,29,1.60
2017,07,16,10,30,11.30
2017,07,16,10,31,11.30
2017,07,16,10,32,11.30
2017,07,16,10,33,8.10
2017,07,16,10,35,12.90
2017,07,16,10,36,12.90
2017,07,16,10,37,16.10
2017,07,16,10,38,12.90
2017,07,16,10,39,8.10
2017,07,16,10,40,11.30
2017,07,16,10,41,8.10
2017,07,16,10,42,11.30
2017,07,16,10,43,12.90
2017,07,16,10,44,11.30
2017,07,16,10,45,9.60
2017,07,16,10,46,11.30
2017,07,16,10,47,8.10
2017,07,16,10,48,6.40
2017,07,16,10,49,11.30
2017,07,16,10,50,6.40
2017,07,16,10,51,11.30
2017,07,16,10,52,8.10
2017,07,16,10,53,11.30
2017,07,16,10,54,11.30
2017,07,16,10,55,11.30
2017,07,16,10,56,11.30
2017,07,16,10,57,11.30
2017,07,16,10,58,12.90
2017,07,16,10,59,11.30
2017,07,16,11,00,6.40
2017,07,16,11,01,9.60
2017,07,16,11,02,17.70
2017,07,16,11,03,11.30
2017,07,16,11,04,11.30
2017,07,16,11,05,9.60
2017,07,16,11,06,9.60
2017,07,16,11,07,6.40
2017,07,16,11,08,9.60
2017,07,16,11,09,9.60
2017,07,16,11,10,9.60
2017,07,16,11,11,8.10
2017,07,16,11,12,6.40
2017,07,16,11,13,9.60
2017,07,16,11,14,11.30
2017,07,16,11,15,8.10
2017,07,16,11,16,1.60
2017,07,16,11,17,4.80
2017,07,16,11,18,11.30
2017,07,16,11,19,6.40
2017,07,16,11,20,6.40
2017,07,16,11,21,8.10
2017,07,16,11,22,8.10
2017,07,16,11,23,9.60
2017,07,16,11,24,8.10
2017,07,16,11,25,8.10
2017,07,16,11,26,8.10
2017,07,16,11,27,11.30
2017,07,16,11,28,11.30
2017,07,16,11,29,9.60
2017,07,16,11,30,11.30
2017,07,16,11,31,9.60
2017,07,16,11,32,9.60
2017,07,16,11,33,19.30
2017,07,16,11,34,17.70
2017,07,16,11,35,14.50
2017,07,16,11,36,9.60
2017,07,16,11,37,12.90
2017,07,16,11,38,8.10
2017,07,16,11,39,11.30
2017,07,16,11,40,6.40
2017,07,16,11,41,6.40
2017,07,16,11,42,3.20
2017,07,16,11,43,9.60
2017,07,16,11,44,12.90
2017,07,16,11,45,12.90
2017,07,16,11,46,11.30
2017,07,16,11,47,11.30
2017,07,16,11,48,9.60
2017,07,16,11,49,6.40
2017,07,16,11,50,11.30
2017,07,16,11,51,12.90
2017,07,16,11,52,12.90
2017,07,16,11,53,12.90
2017,07,16,11,54,12.90
2017,07,16,11,55,12.90
2017,07,16,11,56,11.30
2017,07,16,11,57,12.90
2017,07,16,11,58,12.90
2017,07,16,11,59,12.90
2017,07,16,12,00,14.50
2017,07,16,12,01,11.30
2017,07,16,12,02,14.50
2017,07,16,12,03,14.50
2017,07,16,12,04,16.10
2017,07,16,12,05,12.90
2017,07,16,12,06,11.30
2017,07,16,12,07,9.60
2017,07,16,12,08,14.50
2017,07,16,12,09,11.30
2017,07,16,12,10,12.90
2017,07,16,12,11,9.60
2017,07,16,12,12,11.30
2017,07,16,12,13,12.90
2017,07,16,12,14,9.60
2017,07,16,12,15,12.90
2017,07,16,12,16,8.10
2017,07,16,12,17,4.80
2017,07,16,12,18,1.60
2017,07,16,12,19,6.40
2017,07,16,12,20,6.40
2017,07,16,12,21,9.60
2017,07,16,12,22,9.60
2017,07,16,12,23,9.60
2017,07,16,12,26,16.10
2017,07,16,12,27,9.60
2017,07,16,12,28,6.40
2017,07,16,12,29,8.10
2017,07,16,12,30,11.30
2017,07,16,12,31,8.10
2017,07,16,12,32,8.10
2017,07,16,12,33,11.30
2017,07,16,12,34,12.90
2017,07,16,12,35,16.10
2017,07,16,12,36,9.60
2017,07,16,12,37,6.40
2017,07,16,12,38,9.60
2017,07,16,12,39,9.60
2017,07,16,12,40,14.50
2017,07,16,12,41,14.50
2017,07,16,12,42,14.50
2017,07,16,12,43,11.30
2017,07,16,12,44,9.60
2017,07,16,12,45,8.10
2017,07,16,12,46,9.60
2017,07,16,12,47,8.10
2017,07,16,12,48,6.40
2017,07,16,12,49,3.20
2017,07,16,12,51,9.60
2017,07,16,12,52,9.60
2017,07,16,12,53,11.30
2017,07,16,12,54,11.30
2017,07,16,12,55,8.10
2017,07,16,12,56,11.30
2017,07,16,12,57,11.30
2017,07,16,12,58,11.30
2017,07,16,12,59,11.30
2017,07,16,13,00,9.60
2017,07,16,13,01,6.40
2017,07,16,13,04,9.60
2017,07,16,13,05,12.90
2017,07,16,13,06,8.10
2017,07,16,13,07,3.20
2017,07,16,13,08,12.90
2017,07,16,13,09,12.90
2017,07,16,13,10,1.60
2017,07,16,13,11,11.30
2017,07,16,13,12,8.10
2017,07,16,13,13,4.80
2017,07,16,13,14,11.30
2017,07,16,13,15,9.60
2017,07,16,13,16,8.10
2017,07,16,13,17,8.10
2017,07,16,13,18,11.30
2017,07,16,13,19,12.90
2017,07,16,13,20,14.50
2017,07,16,13,21,6.40
2017,07,16,13,22,11.30
2017,07,16,13,23,8.10
2017,07,16,13,24,9.60
2017,07,16,13,25,6.40
2017,07,16,13,26,8.10
2017,07,16,13,27,9.60
2017,07,16,13,28,8.10
2017,07,16,13,29,12.90
2017,07,16,13,30,14.50
2017,07,16,13,31,9.60
2017,07,16,13,32,9.60
2017,07,16,13,33,8.10
2017,07,16,13,34,8.10
2017,07,16,13,35,6.40
2017,07,16,13,36,8.10
2017,07,16,13,37,1.60
2017,07,16,13,38,4.80
2017,07,16,13,40,6.40
2017,07,16,13,41,8.10
2017,07,16,13,42,8.10
2017,07,16,13,43,6.40
2017,07,16,13,44,4.80
2017,07,16,13,45,1.60
2017,07,16,13,48,6.40
2017,07,16,13,49,1.60
2017,07,16,13,50,1.60
2017,07,16,13,53,6.40
2017,07,16,13,54,6.40
2017,07,16,13,55,3.20
2017,07,16,13,56,11.30
2017,07,16,13,57,3.20
2017,07,16,13,58,6.40
2017,07,16,13,59,9.60
2017,07,16,14,00,17.70
2017,07,16,14,01,17.70
2017,07,16,14,02,3.20
2017,07,16,14,03,9.60
2017,07,16,14,04,6.40
2017,07,16,14,05,16.10
2017,07,16,14,06,16.10
2017,07,16,14,07,6.40
2017,07,16,14,08,9.60
2017,07,16,14,09,16.10
2017,07,16,14,10,14.50
2017,07,16,14,11,17.70
2017,07,16,14,12,16.10
2017,07,16,14,13,11.30
2017,07,16,14,14,17.70
2017,07,16,14,15,16.10
2017,07,16,14,16,16.10
2017,07,16,14,17,20.90
2017,07,16,14,18,17.70
2017,07,16,14,19,22.50
2017,07,16,14,20,20.90
2017,07,16,14,21,19.30
2017,07,16,14,22,17.70
2017,07,16,14,23,16.10
2017,07,16,14,24,11.30
2017,07,16,14,25,17.70
2017,07,16,14,26,14.50
2017,07,16,14,27,14.50
2017,07,16,14,28,17.70
2017,07,16,14,29,9.60
2017,07,16,14,30,14.50
2017,07,16,14,31,14.50
2017,07,16,14,32,14.50
2017,07,16,14,33,11.30
2017,07,16,14,34,3.20
2017,07,16,14,35,8.10
2017,07,16,14,36,9.60
2017,07,16,14,37,14.50
2017,07,16,14,38,8.10
2017,07,16,14,39,6.40
2017,07,16,14,40,1.60
2017,07,16,14,41,8.10
2017,07,16,14,42,11.30
2017,07,16,14,43,14.50
2017,07,16,14,44,9.60
2017,07,16,14,45,12.90
2017,07,16,14,46,9.60
2017,07,16,14,47,11.30
2017,07,16,14,48,19.30
2017,07,16,14,49,11.30
2017,07,16,14,50,3.20
2017,07,16,14,51,8.10
2017,07,16,14,52,11.30
2017,07,16,14,53,11.30
2017,07,16,14,54,9.60
2017,07,16,14,55,9.60
2017,07,16,14,56,8.10
2017,07,16,14,57,8.10
2017,07,16,14,58,1.60
2017,07,16,14,59,11.30
2017,07,16,15,00,9.60
2017,07,16,15,01,11.30
2017,07,16,15,02,12.90
2017,07,16,15,03,9.60
2017,07,16,15,04,9.60
2017,07,16,15,05,8.10
2017,07,16,15,06,3.20
2017,07,16,15,07,9.60
2017,07,16,15,08,11.30
2017,07,16,15,09,8.10
2017,07,16,15,10,6.40
2017,07,16,15,11,12.90
2017,07,16,15,12,8.10
2017,07,16,15,13,16.10
2017,07,16,15,14,17.70
2017,07,16,15,15,12.90
2017,07,16,15,16,11.30
2017,07,16,15,17,19.30
2017,07,16,15,18,14.50
2017,07,16,15,19,6.40
2017,07,16,15,20,6.40
2017,07,16,15,21,9.60
2017,07,16,15,22,6.40
2017,07,16,15,23,12.90
2017,07,16,15,24,8.10
2017,07,16,15,25,6.40
2017,07,16,15,26,8.10
2017,07,16,15,27,1.60
2017,07,16,15,28,6.40
2017,07,16,15,29,11.30
2017,07,16,15,30,9.60
2017,07,16,15,31,3.20
2017,07,16,15,32,3.20
2017,07,16,15,33,3.20
2017,07,16,15,34,9.60
2017,07,16,15,35,14.50
2017,07,16,15,36,12.90
2017,07,16,15,37,4.80
2017,07,16,15,38,6.40
2017,07,16,15,39,6.40
2017,07,16,15,40,4.80
2017,07,16,15,43,6.40
2017,07,16,15,44,17.70
2017,07,16,15,45,3.20
2017,07,16,15,46,3.20
2017,07,16,15,47,8.10
2017,07,16,15,48,9.60
2017,07,16,15,49,8.10
2017,07,16,15,50,8.10
2017,07,16,15,51,8.10
2017,07,16,15,52,9.60
2017,07,16,15,53,17.70
2017,07,16,15,54,11.30
2017,07,16,15,55,6.40
2017,07,16,15,56,9.60
2017,07,16,15,57,1.60
2017,07,16,15,59,1.60
2017,07,16,16,02,6.40
2017,07,16,16,03,6.40
2017,07,16,16,04,6.40
2017,07,16,16,05,6.40
2017,07,16,16,06,9.60
2017,07,16,16,07,9.60
2017,07,16,16,08,6.40
2017,07,16,16,09,8.10
2017,07,16,16,10,3.20
2017,07,16,16,11,6.40
2017,07,16,16,12,6.40
2017,07,16,16,13,3.20
2017,07,16,16,14,6.40
2017,07,16,16,15,3.20
2017,07,16,16,16,9.60
2017,07,16,16,17,9.60
2017,07,16,16,18,3.20
2017,07,16,16,19,3.20
2017,07,16,16,20,9.60
2017,07,16,16,21,9.60
2017,07,16,16,22,9.60
2017,07,16,16,23,8.10
2017,07,16,16,24,9.60
2017,07,16,16,25,9.60
2017,07,16,16,26,6.40
2017,07,16,16,30,1.60
2017,07,16,16,31,9.60
2017,07,16,16,32,9.60
2017,07,16,16,33,6.40
2017,07,16,16,35,1.60
2017,07,16,16,36,1.60
2017,07,16,16,37,8.10
2017,07,16,16,38,8.10
2017,07,16,16,39,4.80
2017,07,16,16,40,8.10
2017,07,16,16,41,8.10
2017,07,16,16,42,8.10
2017,07,16,16,43,8.10
2017,07,16,16,44,6.40
2017,07,16,16,45,11.30
2017,07,16,16,46,9.60
2017,07,16,16,47,3.20
2017,07,16,16,48,9.60
2017,07,16,16,49,1.60
2017,07,16,16,50,1.60
2017,07,16,16,51,9.60
2017,07,16,16,52,8.10
2017,07,16,16,58,11.30
2017,07,16,16,59,6.40
2017,07,16,17,00,1.60
2017,07,16,17,02,1.60
2017,07,16,17,03,1.60
2017,07,16,17,11,1.60
2017,07,16,17,12,8.10
2017,07,16,17,13,8.10
2017,07,16,17,14,8.10
2017,07,16,17,15,6.40
2017,07,16,17,16,1.60
2017,07,16,17,17,9.60
2017,07,16,17,18,9.60
2017,07,16,17,19,6.40
2017,07,16,17,20,6.40
2017,07,16,17,24,1.60
2017,07,16,17,25,1.60
2017,07,16,17,26,1.60
2017,07,16,17,27,1.60
2017,07,16,17,28,1.60
2017,07,16,17,29,1.60
2017,07,16,17,32,1.60
2017,07,16,17,33,1.60
2017,07,16,17,35,1.60
2017,07,16,17,37,1.60
2017,07,16,17,39,1.60
2017,07,16,17,41,8.10
2017,07,16,17,42,6.40
2017,07,16,17,43,8.10
2017,07,16,17,44,4.80
2017,07,16,17,52,1.60
2017,07,16,17,55,1.60
2017,07,16,17,56,6.40
2017,07,16,17,57,6.40
2017,07,16,17,58,8.10
2017,07,16,17,59,6.40
2017,07,16,18,01,1.60
2017,07,16,18,02,6.40
2017,07,16,18,03,4.80
2017,07,16,18,04,9.60
2017,07,16,18,05,9.60
2017,07,16,18,06,9.60
2017,07,16,18,07,8.10
2017,07,16,18,08,9.60
2017,07,16,18,09,8.10
2017,07,16,18,10,6.40
2017,07,16,18,11,9.60
2017,07,16,18,12,9.60
2017,07,16,18,13,8.10
2017,07,16,18,14,1.60
2017,07,16,18,16,1.60
2017,07,16,18,17,1.60
2017,07,16,18,19,1.60
2017,07,16,18,22,1.60
2017,07,16,18,24,1.60
2017,07,16,18,29,1.60
2017,07,16,18,34,1.60
2017,07,16,19,03,1.60
2017,07,16,19,06,1.60
2017,07,16,19,10,1.60
2017,07,16,19,16,1.60
2017,07,16,19,22,1.60
2017,07,16,19,25,1.60
2017,07,16,19,35,1.60
2017,07,16,19,46,1.60
2017,07,16,19,54,1.60
2017,07,16,20,01,1.60
2017,07,16,20,12,1.60
2017,07,16,20,21,1.60
2017,07,16,20,31,6.40
2017,07,16,20,40,1.60
2017,07,16,20,49,1.60
2017,07,16,20,52,3.20
2017,07,16,20,53,3.20
2017,07,16,20,54,1.60
2017,07,16,20,56,1.60
2017,07,16,20,57,1.60
2017,07,16,20,58,6.40
2017,07,16,20,59,3.20
2017,07,16,21,05,1.60
2017,07,16,21,06,1.60
2017,07,16,21,08,3.20
2017,07,16,21,09,3.20
2017,07,16,21,10,1.60
2017,07,16,21,12,1.60
2017,07,16,21,16,6.40
2017,07,16,21,21,1.60
2017,07,16,21,25,1.60
2017,07,16,21,28,1.60
2017,07,16,21,30,1.60
2017,07,16,21,31,1.60
2017,07,16,21,37,3.20
2017,07,16,21,43,6.40
2017,07,16,21,45,6.40
2017,07,16,21,46,1.60
2017,07,16,21,47,8.10
2017,07,16,21,48,1.60
2017,07,16,21,50,1.60
2017,07,16,21,52,1.60
2017,07,16,21,59,1.60
2017,07,16,22,06,1.60
2017,07,16,22,13,1.60
2017,07,16,22,18,1.60
2017,07,16,22,21,1.60
2017,07,16,22,23,1.60
2017,07,16,22,25,1.60
2017,07,16,22,28,1.60
2017,07,16,22,29,3.20
2017,07,16,22,30,8.10
2017,07,16,22,34,1.60
2017,07,16,22,46,1.60
2017,07,16,22,50,3.20
2017,07,16,22,51,4.80
2017,07,16,22,52,1.60
2017,07,16,22,53,6.40
2017,07,16,22,54,6.40
2017,07,16,22,55,1.60
2017,07,16,22,57,3.20
2017,07,16,22,58,3.20
2017,07,16,22,59,3.20
2017,07,16,23,00,3.20
2017,07,16,23,01,1.60
2017,07,16,23,06,3.20
2017,07,16,23,07,1.60
2017,07,16,23,10,3.20
2017,07,16,23,11,4.80
2017,07,16,23,12,3.20
